DW4028 Weather Reports


time (UTC)temp
F
wind
direction
speed
knots
gust
knots
rain 1hr
in
rain 24hr
in
rain mn
in
humidity
%
barometer
mb
20260507040019 56 161 0.9 4.3 0.00 0.06 0.00 92 1006.8
20260507034524 56 134 1.7 7.8 0.00 0.06 0.06 92 1006.7
20260507033014 56 163 1.7 6.1 0.00 0.06 0.06 92 1007.1
20260507031522 56 188 1.7 7.0 0.00 0.06 0.06 92 1007.0
20260507030029 56 167 1.7 8.7 0.00 0.06 0.06 92 1006.9
20260507024524 56 188 1.7 7.0 0.00 0.06 0.06 92 1006.9
20260507023026 56 183 2.6 7.0 0.00 0.06 0.06 92 1007.1
20260507021512 56 196 3.5 7.8 0.00 0.06 0.06 92 1006.7
20260507020020 56 170 2.6 7.0 0.00 0.06 0.06 92 1007.0
20260507014515 56 171 0.9 9.6 0.00 0.06 0.06 92 1007.0
20260507013015 56 190 2.6 6.1 0.00 0.06 0.06 92 1007.2
20260507011513 56 179 3.5 8.7 0.00 0.06 0.06 92 1007.3
20260507010020 56 160 3.5 7.8 0.00 0.06 0.06 92 1007.5
20260507004518 56 175 2.6 8.7 0.00 0.06 0.06 92 1007.5
20260507003015 56 194 2.6 11.3 0.00 0.06 0.06 92 1007.4
20260507001518 56 169 2.6 8.7 0.00 0.06 0.06 92 1007.4
20260507000004 55 181 1.7 7.0 0.00 0.06 0.06 91 1007.5
20260506234511 55 169 3.5 8.7 0.00 0.06 0.06 91 1007.4
20260506233023 55 130 3.5 11.3 0.00 0.06 0.06 91 1007.3
20260506231504 55 136 5.2 10.4 0.01 0.06 0.06 91 1007.4
20260506230022 55 127 1.7 13.0 0.01 0.06 0.06 91 1007.5
20260506224521 55 160 4.3 12.2 0.01 0.06 0.06 90 1007.3
20260506223004 56 128 2.6 12.2 0.03 0.06 0.06 90 1007.3
20260506221519 56 201 2.6 11.3 0.02 0.05 0.05 90 1007.4
20260506220006 56 175 2.6 12.2 0.02 0.05 0.05 90 1007.9
20260506214504 56 193 3.5 10.4 0.02 0.05 0.05 89 1007.7
20260506213007 57 165 3.5 13.9 0.00 0.03 0.03 88 1007.8
20260506211503 57 163 4.3 16.5 0.01 0.03 0.03 88 1007.8
20260506210007 57 161 4.3 12.2 0.01 0.03 0.03 88 1008.0
20260506204506 58 208 1.7 9.6 0.01 0.03 0.03 88 1008.3
20260506203009 58 172 4.3 11.3 0.03 0.03 0.03 88 1008.4
20260506201525 58 144 3.5 14.8 0.02 0.02 0.02 88 1008.5
20260506200026 59 206 2.6 10.4 0.02 0.02 0.02 87 1008.6
20260506194512 59 233 3.5 16.5 0.02 0.02 0.02 86 1008.8
20260506193023 61 184 4.3 11.3 0.00 0.00 0.00 81 1008.8
20260506191508 63 209 3.5 12.2 0.00 0.00 0.00 76 1008.9
20260506190025 63 52 5.2 13.9 0.00 0.00 0.00 73 1008.8
20260506184520 64 46 3.5 10.4 0.00 0.00 0.00 73 1008.9
20260506183012 65 37 8.7 15.6 0.00 0.00 0.00 71 1008.9
20260506181519 65 53 0.9 15.6 0.00 0.00 0.00 70 1009.1
20260506180024 66 38 6.1 17.4 0.00 0.00 0.00 69 1009.2
20260506174523 66 32 6.1 16.5 0.00 0.00 0.00 68 1009.4
20260506173024 67 101 7.8 16.5 0.00 0.00 0.00 67 1009.7
20260506171515 67 203 5.2 15.6 0.00 0.00 0.00 68 1009.7
20260506170020 68 209 7.0 15.6 0.00 0.00 0.00 65 1009.6
20260506164525 67 197 7.8 18.2 0.00 0.00 0.00 67 1010.1
20260506163014 66 242 6.1 20.0 0.00 0.00 0.00 69 1010.1
20260506161521 67 171 4.3 13.9 0.00 0.00 0.00 68 1010.1
20260506160028 67 250 4.3 12.2 0.00 0.00 0.00 67 1010.4
20260506154521 67 206 3.5 11.3 0.00 0.00 0.00 69 1010.6
20260506153024 67 208 4.3 15.6 0.00 0.00 0.00 68 1010.8
20260506151530 67 211 7.0 12.2 0.00 0.00 0.00 67 1010.8
20260506150004 66 82 4.3 16.5 0.00 0.00 0.00 70 1011.0
20260506144508 65 91 6.1 13.9 0.00 0.00 0.00 71 1010.9
20260506143009 64 158 3.5 10.4 0.00 0.00 0.00 72 1011.0
20260506141504 65 146 4.3 18.2 0.00 0.00 0.00 71 1011.0
20260506140018 65 165 2.6 11.3 0.00 0.00 0.00 71 1010.7
20260506134514 65 259 7.0 16.5 0.00 0.00 0.00 71 1010.9
20260506133007 64 250 4.3 14.8 0.00 0.00 0.00 73 1011.4
20260506131517 63 219 6.1 10.4 0.00 0.00 0.00 75 1011.4
20260506130005 62 176 4.3 9.6 0.00 0.00 0.00 78 1011.5
20260506124508 61 102 3.5 12.2 0.00 0.00 0.00 78 1011.4
20260506123018 61 104 5.2 12.2 0.00 0.00 0.00 79 1011.4
20260506121506 60 59 4.3 9.6 0.00 0.00 0.00 81 1011.3
20260506120012 58 49 3.5 7.8 0.00 0.00 0.00 84 1011.6
20260506114533 58 90 4.3 11.3 0.00 0.00 0.00 84 1011.6
20260506113006 58 94 3.5 11.3 0.00 0.00 0.00 84 1011.7
20260506111518 57 83 5.2 12.2 0.00 0.00 0.00 86 1011.8
20260506110024 57 159 2.6 8.7 0.00 0.00 0.00 86 1011.8
20260506104510 57 136 2.6 9.6 0.00 0.00 0.00 86 1011.7
20260506103020 57 182 2.6 8.7 0.00 0.00 0.00 87 1011.7
20260506101511 56 184 2.6 12.2 0.00 0.00 0.00 87 1011.7
20260506100022 56 237 1.7 9.6 0.00 0.00 0.00 86 1011.5
20260506094524 57 238 2.6 10.4 0.00 0.00 0.00 86 1011.4
20260506093013 57 192 3.5 8.7 0.00 0.00 0.00 85 1011.6
20260506091507 57 177 3.5 8.7 0.00 0.00 0.00 85 1011.5
20260506090010 57 169 2.6 10.4 0.00 0.00 0.00 85 1011.6
20260506084510 57 169 2.6 13.9 0.00 0.00 0.00 84 1011.8
20260506083013 57 165 1.7 9.6 0.00 0.00 0.00 84 1011.9
20260506081512 57 165 5.2 13.0 0.00 0.00 0.00 84 1011.9
20260506073016 58 186 3.5 10.4 0.00 0.00 0.00 82 1011.8
20260506071515 58 124 5.2 12.2 0.00 0.00 0.00 81 1011.9
20260506061520 58 188 3.5 13.0 0.00 0.00 0.00 80 1011.7
20260506044504 57 129 5.2 13.9 0.00 0.00 0.00 79 1012.3
20260506043006 57 169 2.6 7.8 0.00 0.00 0.00 78 1012.3
20260506041506 58 172 4.3 9.6 0.00 0.00 0.00 77 1012.2